Voltar ao catálogo

FORMOSAT7-5/COSMIC2-5

AtivoMeteoVLEO
NORAD 44358·PAYLOAD·🇹🇼 Taiwan

Lançado Jun 25, 2019 de Cape Canaveral Space Force Station

Loading…

Próximas Passagens (próximas 24 horas)

TLE

AtualizadoSource: Space-Track

Época: Sep 14, 2026, 09:47 UTC

1 44358U 19036V   26257.40766426  .00002081  00000-0  15156-3 0  9992
2 44358  23.9993  26.7396 0000459 112.8236 247.2313 14.96804388395735

Acompanhe FORMOSAT7-5/COSMIC2-5 em tempo real com AllMySat

Download on the App Store